Location: Arthez
(43.0833°N, 0.2500°W)
Time: 12:08:28
(UTC+00:00)

Cosmos 304 Rocket - Pass Details

Date: 05 June 2022
Orbit: 679 x 686 km, 74.0° (Epoch: 01 July)

Event Time Altitude Azimuth Distance (km) Brightness Sun altitude
Exits shadow 22:11:07 27° 101° (E) 1,296 4.8 -19.7°
Maximum altitude 22:11:10 27° 100° (E) 1,295 4.9 -19.7°
Drops below altitude 10° 22:15:13 10° 43° (NE) 2,141 6.6 -20.0°
Sets 22:17:48 0° 32° (NNE) 3,061 7.6 -20.2°
